{"data":{"norad_id":56031,"epoch":"2026-05-24T21:41:00.430944Z","epoch_age_seconds":76592,"freshness":"FRESH","line1":"1 56031U 23042AX  26144.90347721 -.00000313  00000+0 -18492-5 0  9993","line2":"2 56031  43.0052 334.6173 0001336 262.7163  97.3537 15.27574876174691","mean_motion":15.27574876,"eccentricity":0.0001336,"inclination_deg":43.0052,"raan_deg":334.6173,"arg_perigee_deg":262.7163,"mean_anomaly_deg":97.3537,"bstar":-1.8492e-6,"rev_number":17469,"period_min":94.267064916038,"perigee_km":482.14778266962,"apogee_km":483.98109569416,"semimajor_km":6861.2014391819,"source":"CELESTRAK","updated_at":"2026-05-25T13:38:17.950750Z"}}